Location: Tel Aviv
(32.0670°N, 34.7670°E)
Time: 14:30:24
(UTC+03:00)

XW-2B - Visible Passes

Search period start: 17 September 2024 00:00
Search period end: 27 September 2024 00:00
Orbit: 373 x 374 km, 97.5° (Epoch: 17 September)

Date Brightness Start Highest point End Pass type
(mag) Time Alt. Az. Time Alt. Az. Time Alt. Az.
17 Sep ? 19:20:26 10° SSE 19:23:17 53° ENE 19:26:10 10° N visible
18 Sep ? 19:53:01 10° SSW 19:55:44 35° W 19:58:28 10° NNW visible
19 Sep ? 20:27:00 10° WSW 20:27:48 11° W 20:28:37 10° WNW visible
20 Sep ? 19:25:13 10° SSE 19:28:06 64° ENE 19:31:00 10° N visible
21 Sep ? 19:56:27 10° SSW 19:59:05 31° W 20:01:44 10° NNW visible
22 Sep ? 20:29:12 10° WSW 20:29:41 10° W 20:30:10 10° W visible
23 Sep ? 19:25:45 10° SSE 19:28:36 62° ENE 19:31:28 10° N visible
24 Sep ? 19:55:28 10° SSW 19:58:07 33° W 20:00:46 10° NNW visible
25 Sep ? 18:54:28 10° ESE 18:56:22 16° ENE 18:58:16 10° NNE visible
25 Sep ? 20:26:11 10° WSW 20:27:13 11° W 20:28:16 10° WNW visible
26 Sep ? 19:22:02 10° SSE 19:24:48 49° ENE 19:27:34 10° N visible
